カタログに戻る

BLOCK DM-SL R/B

運用中GTO
NORAD 37817·ROCKET BODY· XX

打ち上げ Sep 24, 2011 から Sea Launch Platform

Loading…

TLE

最新Source: Space-Track

元期: Sep 14, 2026, 22:22 UTC

1 37817U 11051B   26257.93222745 -.00000166  00000-0  00000-0 0  9994
2 37817   0.8579   0.2565 6808052 144.5327 209.8915  2.20341825120532

AllMySatでBLOCK DM-SL R/Bをリアルタイム追跡

Download on the App Store